TimeAKDT,TemperatureF,Dew PointF,Humidity,Sea Level PressureIn,VisibilityMPH,Wind Direction,Wind SpeedMPH,Gust SpeedMPH,PrecipitationIn,Events,Conditions,WindDirDegrees,DateUTC
12:53 AM,36.0,30.9,82,30.22,10.0,North,6.9,-,N/A,,Clear,350,2013-05-10 08:53:00
1:53 AM,37.9,30.0,73,30.20,10.0,North,5.8,-,N/A,,Clear,360,2013-05-10 09:53:00
2:53 AM,39.9,30.0,68,30.18,10.0,NNW,3.5,-,N/A,,Clear,330,2013-05-10 10:53:00
3:53 AM,42.1,30.0,62,30.17,10.0,NNE,8.1,-,N/A,,Clear,20,2013-05-10 11:53:00
4:53 AM,42.1,30.0,62,30.16,10.0,NNW,6.9,-,N/A,,Clear,340,2013-05-10 12:53:00
5:53 AM,42.1,28.9,60,30.15,10.0,North,6.9,-,N/A,,Clear,350,2013-05-10 13:53:00
6:53 AM,41.0,28.9,62,30.13,10.0,NNW,4.6,-,N/A,,Clear,340,2013-05-10 14:53:00
7:53 AM,44.1,28.9,55,30.12,10.0,North,4.6,-,N/A,,Clear,360,2013-05-10 15:53:00
8:53 AM,46.0,28.9,51,30.12,10.0,NNW,6.9,-,N/A,,Overcast,340,2013-05-10 16:53:00
9:53 AM,52.0,28.9,41,30.10,10.0,Variable,3.5,-,N/A,,Mostly Cloudy,0,2013-05-10 17:53:00
10:53 AM,55.0,28.0,35,30.09,10.0,NNW,3.5,-,N/A,,Mostly Cloudy,330,2013-05-10 18:53:00
11:53 AM,55.0,34.0,45,30.07,10.0,Variable,3.5,-,N/A,,Partly Cloudy,0,2013-05-10 19:53:00
12:53 PM,62.1,25.0,24,30.06,10.0,NW,10.4,-,N/A,,Clear,310,2013-05-10 20:53:00
1:53 PM,63.0,27.0,26,30.03,10.0,NNE,10.4,-,N/A,,Clear,20,2013-05-10 21:53:00
2:53 PM,63.0,28.0,27,30.01,10.0,North,9.2,-,N/A,,Clear,10,2013-05-10 22:53:00
3:53 PM,52.0,39.9,63,30.02,10.0,SSW,12.7,18.4,N/A,,Mostly Cloudy,200,2013-05-10 23:53:00
4:53 PM,50.0,41.0,71,30.03,10.0,South,8.1,-,N/A,,Mostly Cloudy,180,2013-05-11 00:53:00
5:53 PM,48.0,39.9,74,30.03,10.0,SSE,6.9,-,N/A,,Overcast,160,2013-05-11 01:53:00
6:53 PM,48.0,39.9,74,30.02,10.0,SSE,6.9,-,N/A,,Overcast,160,2013-05-11 02:53:00
7:53 PM,48.0,39.0,71,30.00,10.0,South,3.5,-,N/A,,Overcast,180,2013-05-11 03:53:00
8:53 PM,46.0,41.0,83,30.00,10.0,SSE,6.9,-,N/A,,Overcast,150,2013-05-11 04:53:00
9:53 PM,46.0,41.0,83,30.00,10.0,South,4.6,-,N/A,,Overcast,180,2013-05-11 05:53:00
10:53 PM,45.0,42.1,90,29.99,10.0,SE,3.5,-,0.00,Rain,Light Rain,130,2013-05-11 06:53:00
11:53 PM,44.1,42.1,93,29.99,10.0,Calm,Calm,-,0.00,,Overcast,0,2013-05-11 07:53:00